Hourly Data Report for November 21, 2016

All times are specified in Local Standard Time (LST). Add 1 hour to adjust for Daylight Saving Time where and when it is observed.

VICTORIA UNIVERSITY CS
BRITISH COLUMBIA

48°27'25.200" N
123°18'16.600" W
60.10 m
1018598
71783
WYJ

Download Data

Hourly Data (November 2016)
Hourly Data Report for November 21, 2016
TIME Temp Definition
°C
Dew Point Definition
°C
Rel Hum Definition
%
Wind Dir Definition
10's deg

Wind Spd Definition
km/h
Visibility Definition
km
Stn Press Definition
kPa
Hmdx Definition


Wind Chill Definition


Weather Definition


00:00 8.9 7.9 94 23 5   100.13     LegendNANA
01:00 8.8 7.7 93 23 6   100.16     LegendNANA
02:00 8.7 7.8 94 22 5   100.21     LegendNANA
03:00 9.0 7.3 90 23 8   100.26     LegendNANA
04:00 9.3 7.2 87 23 8   100.31     LegendNANA
05:00 8.9 7.5 91 23 3   100.37     LegendNANA
06:00 8.7 7.3 91 24 6   100.40     LegendNANA
07:00 7.8 6.4 91 23 6   100.45     LegendNANA
08:00 6.6 5.9 95 24 4   100.50     LegendNANA
09:00 8.4 7.2 92 25 4   100.54     LegendNANA
10:00 9.7 7.4 86 25 8   100.58     LegendNANA
11:00 12.0 5.5 64 25 9   100.61     LegendNANA
12:00 12.1 3.8 57 25 11   100.64     LegendNANA
13:00 12.4 3.9 56 25 9   100.65     LegendNANA
14:00 12.2 2.9 53 25 6   100.68     LegendNANA
15:00 11.0 3.1 58 22 4   100.74     LegendNANA
16:00 10.0 3.5 64 16 4   100.77     LegendNANA
17:00 7.8 4.5 80 18 2   100.79     LegendNANA
18:00 8.4 5.5 82 17 1   100.83     LegendNANA
19:00 9.1 7.0 86 10 1   100.79     LegendNANA
20:00 8.1 6.0 87   0   100.84     LegendNANA
21:00 7.1 6.3 95 35 2   100.84     LegendNANA
22:00 7.5 6.7 95 8 2   100.82     LegendNANA
23:00 6.8 6.0 95 4 2   100.80     LegendNANA

Notes on Data Quality.

Legend

  • E = Estimated
  • M = Missing
  • NA = Not Available
Date modified: